| time (UTC) | temp F | wind direction | speed knots | gust knots | rain 1hr in | rain 24hr in | rain mn in | humidity % | barometer mb |
| 20260506033701 | 51 | 182 | 0.0 | 0.0 | 0.12 | 1.00 | 1.01 | 90 | 1007.8 |
| 20260506033255 | 51 | 191 | 0.0 | 0.0 | 0.12 | 0.99 | 1.00 | 90 | 1007.9 |
| 20260506032858 | 51 | 184 | 0.0 | 0.0 | 0.10 | 0.98 | 0.99 | 90 | 1007.9 |
| 20260506032504 | 51 | 186 | 0.0 | 0.0 | 0.10 | 0.98 | 0.98 | 90 | 1008.0 |
| 20260506032050 | 51 | 187 | 0.0 | 0.0 | 0.10 | 0.97 | 0.98 | 90 | 1008.0 |
| 20260506031652 | 52 | 192 | 0.0 | 0.0 | 0.10 | 0.97 | 0.97 | 90 | 1007.9 |
| 20260506031253 | 52 | 191 | 0.0 | 0.0 | 0.15 | 0.96 | 0.96 | 90 | 1007.9 |
| 20260506030856 | 52 | 192 | 0.0 | 0.0 | 0.15 | 0.94 | 0.95 | 90 | 1008.0 |
| 20260506030459 | 52 | 196 | 0.0 | 0.0 | 0.18 | 0.93 | 0.94 | 90 | 1008.1 |
| 20260506030104 | 52 | 201 | 0.0 | 0.0 | 0.10 | 0.92 | 0.93 | 90 | 1008.2 |
| 20260506025654 | 52 | 199 | 0.0 | 0.0 | 0.13 | 0.92 | 0.93 | 90 | 1008.2 |
| 20260506025244 | 52 | 200 | 0.0 | 0.0 | 0.10 | 0.92 | 0.92 | 90 | 1008.2 |
| 20260506024843 | 52 | 186 | 0.0 | 0.0 | 0.15 | 0.91 | 0.91 | 90 | 1008.2 |
| 20260506024432 | 52 | 182 | 0.0 | 0.0 | 0.16 | 0.90 | 0.90 | 90 | 1008.4 |
| 20260506024019 | 52 | 183 | 0.0 | 0.0 | 0.17 | 0.89 | 0.89 | 90 | 1008.3 |
| 20260506023604 | 52 | 204 | 0.0 | 0.0 | 0.10 | 0.86 | 0.87 | 90 | 1008.3 |
| 20260506023204 | 52 | 202 | 0.0 | 0.0 | 0.10 | 0.86 | 0.87 | 90 | 1008.3 |
| 20260506022246 | 52 | 41 | 0.0 | 0.0 | 0.06 | 0.85 | 0.85 | 90 | 1008.1 |
| 20260506021845 | 52 | 41 | 0.0 | 0.0 | 0.10 | 0.85 | 0.85 | 90 | 1008.1 |
| 20260506021430 | 52 | 40 | 0.0 | 0.0 | 0.10 | 0.84 | 0.85 | 90 | 1008.0 |
| 20260506021015 | 52 | 40 | 0.0 | 0.0 | 0.06 | 0.84 | 0.84 | 90 | 1007.9 |
| 20260506015549 | 52 | 40 | 0.0 | 0.0 | 0.13 | 0.83 | 0.83 | 90 | 1007.6 |
| 20260506014630 | 52 | 40 | 0.0 | 0.0 | 0.06 | 0.80 | 0.81 | 90 | 1007.8 |
| 20260506013701 | 52 | 41 | 0.0 | 0.0 | 0.06 | 0.79 | 0.81 | 90 | 1007.6 |
| 20260506012749 | 52 | 40 | 0.0 | 0.0 | 0.00 | 0.78 | 0.79 | 90 | 1007.7 |
| 20260506012334 | 52 | 40 | 0.0 | 0.0 | 0.00 | 0.78 | 0.79 | 90 | 1007.6 |
| 20260506011923 | 52 | 41 | 0.0 | 0.0 | 0.00 | 0.78 | 0.79 | 90 | 1007.6 |
| 20260506011522 | 51 | 40 | 0.0 | 0.0 | 0.00 | 0.78 | 0.77 | 90 | 1007.7 |
| 20260506011106 | 51 | 42 | 0.0 | 0.0 | 0.00 | 0.78 | 0.77 | 90 | 1007.6 |
| 20260506010148 | 51 | 40 | 0.0 | 0.0 | 0.04 | 0.78 | 0.77 | 90 | 1007.4 |
| 20260506005738 | 51 | 41 | 0.0 | 0.0 | 0.05 | 0.78 | 0.77 | 90 | 1007.2 |
| 20260506005332 | 51 | 42 | 0.0 | 0.9 | 0.05 | 0.78 | 0.77 | 90 | 1007.1 |
| 20260506004916 | 51 | 226 | 0.0 | 0.0 | 0.05 | 0.78 | 0.77 | 90 | 1007.3 |
| 20260506003957 | 51 | 235 | 0.0 | 0.0 | 0.09 | 0.77 | 0.77 | 89 | 1007.6 |
| 20260506001431 | 51 | 25 | 0.0 | 0.0 | 0.10 | 0.72 | 0.73 | 89 | 1007.7 |
| 20260506001022 | 51 | 25 | 0.0 | 2.6 | 0.13 | 0.72 | 0.72 | 89 | 1007.6 |
| 20260506000615 | 51 | 26 | 0.0 | 2.6 | 0.34 | 0.71 | 0.72 | 89 | 1007.7 |
| 20260506000205 | 51 | 144 | 0.0 | 2.6 | 0.28 | 0.68 | 0.70 | 89 | 1008.3 |
| 20260505235806 | 51 | 210 | 0.0 | 2.6 | 0.32 | 0.67 | 0.68 | 89 | 1008.0 |
| 20260505234316 | 52 | 9 | 0.0 | 0.0 | 0.13 | 0.62 | 0.62 | 89 | 1007.8 |
| 20260505233919 | 51 | 37 | 0.0 | 0.0 | 0.15 | 0.61 | 0.62 | 89 | 1007.8 |
| 20260505233515 | 52 | 36 | 0.0 | 1.7 | 0.13 | 0.59 | 0.61 | 89 | 1007.6 |
| 20260505233101 | 52 | 37 | 0.0 | 1.7 | 0.38 | 0.59 | 0.60 | 89 | 1007.9 |
| 20260505232700 | 52 | 98 | 0.0 | 1.7 | 0.21 | 0.58 | 0.57 | 89 | 1008.0 |
| 20260505232305 | 52 | 202 | 0.0 | 1.7 | 0.28 | 0.57 | 0.55 | 89 | 1008.2 |
| 20260505231855 | 52 | 227 | 0.0 | 1.7 | 0.13 | 0.56 | 0.52 | 89 | 1008.1 |
| 20260505231455 | 52 | 190 | 0.0 | 0.9 | 0.55 | 0.57 | 0.52 | 88 | 1007.9 |
| 20260505231101 | 52 | 182 | 0.0 | 0.9 | 0.16 | 0.55 | 0.48 | 88 | 1008.0 |
| 20260505230706 | 52 | 180 | 0.0 | 0.9 | 0.17 | 0.53 | 0.47 | 88 | 1007.8 |
| 20260505230307 | 52 | 190 | 0.0 | 0.9 | 0.24 | 0.53 | 0.46 | 88 | 1007.9 |
| 20260505224318 | 52 | 170 | 0.0 | 1.7 | 0.32 | 0.43 | 0.36 | 88 | 1007.7 |
| 20260505223903 | 52 | 185 | 0.0 | 1.7 | 0.06 | 0.40 | 0.34 | 88 | 1007.6 |
| 20260505223458 | 52 | 198 | 0.0 | 1.7 | 0.05 | 0.39 | 0.33 | 88 | 1007.4 |
| 20260505222538 | 52 | 149 | 0.0 | 1.7 | 0.05 | 0.39 | 0.32 | 88 | 1007.6 |
| 20260505221608 | 52 | 171 | 0.0 | 2.6 | 0.25 | 0.39 | 0.32 | 87 | 1007.4 |
| 20260505221157 | 52 | 184 | 0.0 | 2.6 | 0.18 | 0.36 | 0.31 | 87 | 1007.4 |
| 20260505220759 | 52 | 171 | 0.0 | 2.6 | 0.20 | 0.34 | 0.28 | 87 | 1007.4 |
| 20260505220348 | 52 | 196 | 0.0 | 2.6 | 0.10 | 0.33 | 0.27 | 86 | 1007.6 |
| 20260505215945 | 52 | 215 | 0.0 | 1.7 | 0.15 | 0.33 | 0.26 | 86 | 1007.5 |
| 20260505215019 | 52 | 172 | 0.0 | 3.5 | 0.13 | 0.30 | 0.24 | 86 | 1007.3 |
| 20260505214606 | 52 | 186 | 0.9 | 6.1 | 0.04 | 0.28 | 0.23 | 86 | 1007.3 |
| 20260505214204 | 52 | 186 | 0.9 | 6.1 | 0.05 | 0.28 | 0.21 | 86 | 1007.4 |
| 20260505213241 | 53 | 75 | 0.9 | 6.1 | 0.06 | 0.28 | 0.21 | 86 | 1007.6 |
| 20260505211753 | 53 | 49 | 0.9 | 3.5 | 0.25 | 0.26 | 0.20 | 86 | 1007.5 |
| 20260505211343 | 53 | 53 | 0.9 | 5.2 | 0.35 | 0.23 | 0.18 | 86 | 1007.4 |
| 20260505210933 | 54 | 29 | 1.7 | 5.2 | 0.05 | 0.23 | 0.17 | 86 | 1007.3 |
| 20260505210533 | 54 | 29 | 0.9 | 6.1 | 0.06 | 0.23 | 0.16 | 86 | 1007.3 |
| 20260505210126 | 54 | 35 | 1.7 | 6.1 | 0.09 | 0.23 | 0.16 | 86 | 1007.3 |
| 20260505205725 | 54 | 36 | 1.7 | 8.7 | 0.09 | 0.21 | 0.15 | 86 | 1007.1 |
| 20260505205326 | 55 | 33 | 0.9 | 8.7 | 0.08 | 0.21 | 0.15 | 86 | 1006.9 |
| 20260505204912 | 55 | 30 | 0.9 | 8.7 | 0.10 | 0.20 | 0.13 | 86 | 1006.9 |
| 20260505204504 | 55 | 40 | 1.7 | 8.7 | 0.15 | 0.20 | 0.13 | 85 | 1007.0 |
| 20260505204106 | 56 | 38 | 1.7 | 8.7 | 0.12 | 0.19 | 0.13 | 86 | 1007.0 |
| 20260505203706 | 56 | 32 | 1.7 | 7.0 | 0.15 | 0.19 | 0.12 | 85 | 1007.0 |
| 20260505202211 | 57 | 268 | 0.9 | 4.3 | 0.20 | 0.13 | 0.08 | 85 | 1007.0 |
| 20260505201248 | 58 | 211 | 1.7 | 4.3 | 0.23 | 0.11 | 0.05 | 84 | 1006.8 |
| 20260505200845 | 58 | 213 | 0.9 | 4.3 | 0.04 | 0.10 | 0.03 | 84 | 1006.9 |
| 20260505195354 | 58 | 246 | 1.7 | 7.0 | 0.00 | 0.09 | 0.02 | 79 | 1006.8 |
| 20260505193917 | 60 | 233 | 1.7 | 9.6 | 0.00 | 0.08 | 0.01 | 76 | 1006.8 |
| 20260505193516 | 60 | 200 | 1.7 | 9.6 | 0.00 | 0.08 | 0.01 | 74 | 1006.6 |
| 20260505193115 | 61 | 222 | 1.7 | 9.6 | 0.00 | 0.08 | 0.01 | 73 | 1006.5 |
| 20260505192712 | 61 | 250 | 2.6 | 9.6 | 0.00 | 0.08 | 0.01 | 71 | 1006.6 |
| 20260505192316 | 62 | 232 | 2.6 | 9.6 | 0.00 | 0.08 | 0.01 | 69 | 1006.5 |
| 20260505191907 | 62 | 313 | 1.7 | 9.6 | 0.00 | 0.08 | 0.01 | 70 | 1006.5 |
| 20260505191458 | 62 | 256 | 2.6 | 9.6 | 0.00 | 0.08 | 0.01 | 68 | 1006.5 |
| 20260505191058 | 62 | 0 | 2.6 | 7.8 | 0.00 | 0.08 | 0.01 | 68 | 1006.6 |
| 20260505190152 | 63 | 221 | 1.7 | 9.6 | 0.00 | 0.08 | 0.01 | 71 | 1006.4 |
| 20260505185230 | 62 | 263 | 1.7 | 9.6 | 0.00 | 0.08 | 0.01 | 72 | 1006.5 |
| 20260505184830 | 62 | 236 | 1.7 | 9.6 | 0.00 | 0.08 | 0.01 | 72 | 1006.5 |
| 20260505184425 | 62 | 306 | 1.7 | 7.8 | 0.00 | 0.08 | 0.01 | 72 | 1006.6 |
| 20260505184010 | 62 | 214 | 1.7 | 7.8 | 0.00 | 0.08 | 0.01 | 72 | 1006.6 |
| 20260505183613 | 62 | 205 | 1.7 | 7.8 | 0.00 | 0.08 | 0.01 | 73 | 1006.5 |
| 20260505183216 | 63 | 216 | 1.7 | 5.2 | 0.00 | 0.08 | 0.01 | 72 | 1006.5 |
| 20260505182816 | 63 | 163 | 1.7 | 5.2 | 0.00 | 0.08 | 0.01 | 72 | 1006.6 |
| 20260505181846 | 63 | 284 | 1.7 | 5.2 | 0.00 | 0.08 | 0.01 | 72 | 1006.5 |
| 20260505181442 | 63 | 213 | 1.7 | 5.2 | 0.00 | 0.08 | 0.01 | 72 | 1006.4 |
| 20260505181049 | 63 | 227 | 1.7 | 5.2 | 0.00 | 0.08 | 0.01 | 72 | 1006.4 |
| 20260505180646 | 63 | 227 | 1.7 | 5.2 | 0.00 | 0.08 | 0.01 | 72 | 1006.4 |
| 20260505180245 | 63 | 237 | 1.7 | 5.2 | 0.00 | 0.08 | 0.01 | 73 | 1006.6 |
| 20260505175829 | 63 | 299 | 1.7 | 5.2 | 0.00 | 0.08 | 0.01 | 72 | 1006.6 |
| 20260505175417 | 63 | 19 | 1.7 | 7.8 | 0.00 | 0.08 | 0.01 | 73 | 1006.5 |
| 20260505175003 | 63 | 17 | 1.7 | 7.8 | 0.00 | 0.08 | 0.01 | 72 | 1006.4 |
| 20260505174558 | 63 | 16 | 1.7 | 8.7 | 0.00 | 0.08 | 0.01 | 73 | 1006.3 |
| 20260505174154 | 62 | 18 | 2.6 | 8.7 | 0.00 | 0.08 | 0.01 | 73 | 1006.3 |
| 20260505173740 | 62 | 17 | 2.6 | 8.7 | 0.00 | 0.08 | 0.01 | 73 | 1006.3 |
| 20260505173342 | 62 | 17 | 2.6 | 10.4 | 0.00 | 0.08 | 0.01 | 73 | 1006.2 |
| 20260505172932 | 62 | 14 | 2.6 | 10.4 | 0.00 | 0.08 | 0.01 | 72 | 1006.1 |
| 20260505172003 | 63 | 179 | 3.5 | 10.4 | 0.00 | 0.08 | 0.01 | 71 | 1006.1 |
| 20260505171604 | 63 | 261 | 3.5 | 9.6 | 0.00 | 0.08 | 0.01 | 70 | 1006.0 |
| 20260505171209 | 63 | 269 | 3.5 | 9.6 | 0.00 | 0.08 | 0.01 | 69 | 1006.0 |
| 20260505170753 | 64 | 0 | 3.5 | 9.6 | 0.00 | 0.08 | 0.01 | 68 | 1005.8 |
| 20260505170350 | 65 | 0 | 3.5 | 9.6 | 0.00 | 0.08 | 0.01 | 67 | 1005.8 |
| 20260505165941 | 66 | 86 | 3.5 | 9.6 | 0.00 | 0.08 | 0.01 | 67 | 1005.7 |
| 20260505165534 | 66 | 244 | 4.3 | 13.0 | 0.00 | 0.08 | 0.01 | 67 | 1005.6 |
| 20260505165120 | 66 | 232 | 3.5 | 13.0 | 0.00 | 0.08 | 0.01 | 66 | 1005.6 |
| 20260505164718 | 66 | 152 | 3.5 | 13.0 | 0.00 | 0.08 | 0.01 | 66 | 1005.7 |
| 20260505164316 | 66 | 220 | 4.3 | 13.0 | 0.00 | 0.08 | 0.01 | 64 | 1005.6 |
| 20260505163904 | 67 | 230 | 4.3 | 13.0 | 0.00 | 0.08 | 0.01 | 63 | 1005.4 |
| 20260505163451 | 67 | 327 | 4.3 | 12.2 | 0.00 | 0.08 | 0.01 | 63 | 1005.4 |
| 20260505163052 | 67 | 25 | 4.3 | 12.2 | 0.00 | 0.08 | 0.01 | 62 | 1005.3 |
| 20260505162636 | 69 | 279 | 3.5 | 12.2 | 0.00 | 0.08 | 0.01 | 62 | 1005.4 |
| 20260505162233 | 69 | 232 | 3.5 | 12.2 | 0.00 | 0.08 | 0.01 | 61 | 1005.1 |
| 20260505161831 | 68 | 0 | 3.5 | 12.2 | 0.00 | 0.08 | 0.01 | 61 | 1005.3 |
| 20260505160353 | 66 | 227 | 4.3 | 13.0 | 0.00 | 0.08 | 0.01 | 64 | 1005.3 |
| 20260505152057 | 66 | 288 | 3.5 | 13.9 | 0.00 | 0.08 | 0.01 | 61 | 1004.9 |
| 20260505151659 | 66 | 180 | 4.3 | 13.9 | 0.00 | 0.08 | 0.01 | 61 | 1005.1 |
| 20260505151300 | 65 | 221 | 3.5 | 11.3 | 0.00 | 0.08 | 0.01 | 61 | 1005.3 |
| 20260505150344 | 67 | 230 | 2.6 | 9.6 | 0.00 | 0.08 | 0.01 | 60 | 1005.2 |
| 20260505130200 | 68 | 226 | 2.6 | 7.8 | 0.00 | 0.08 | 0.01 | 58 | 1003.6 |
| 20260505124851 | 68 | 207 | 1.7 | 5.2 | 0.00 | 0.08 | 0.01 | 58 | 1003.2 |
| 20260505124451 | 68 | 180 | 1.7 | 5.2 | 0.00 | 0.08 | 0.01 | 57 | 1003.2 |
| 20260505124047 | 68 | 257 | 0.9 | 8.7 | 0.00 | 0.08 | 0.01 | 58 | 1003.1 |
| 20260505123651 | 68 | 238 | 0.9 | 8.7 | 0.00 | 0.08 | 0.01 | 57 | 1003.1 |
| 20260505123257 | 68 | 207 | 1.7 | 8.7 | 0.00 | 0.08 | 0.01 | 58 | 1003.0 |
| 20260505122848 | 68 | 153 | 0.9 | 8.7 | 0.00 | 0.08 | 0.01 | 58 | 1002.9 |
| 20260505122453 | 68 | 106 | 0.9 | 8.7 | 0.00 | 0.08 | 0.01 | 58 | 1002.9 |
| 20260505122038 | 68 | 225 | 0.9 | 7.0 | 0.00 | 0.08 | 0.01 | 57 | 1002.8 |
| 20260505121638 | 68 | 186 | 1.7 | 8.7 | 0.00 | 0.08 | 0.01 | 57 | 1002.6 |
| 20260505121239 | 68 | 244 | 1.7 | 8.7 | 0.00 | 0.08 | 0.01 | 56 | 1002.8 |
| 20260505120842 | 68 | 231 | 1.7 | 8.7 | 0.00 | 0.08 | 0.01 | 57 | 1002.9 |
| 20260505115912 | 68 | 221 | 0.9 | 8.7 | 0.00 | 0.08 | 0.01 | 58 | 1003.0 |
| 20260505115505 | 67 | 232 | 0.0 | 3.5 | 0.00 | 0.08 | 0.01 | 61 | 1003.1 |
| 20260505115107 | 67 | 251 | 0.9 | 3.5 | 0.00 | 0.08 | 0.01 | 61 | 1003.1 |
| 20260505114700 | 67 | 193 | 0.9 | 3.5 | 0.00 | 0.08 | 0.01 | 60 | 1003.1 |
| 20260505114302 | 67 | 213 | 0.9 | 3.5 | 0.00 | 0.08 | 0.01 | 60 | 1003.1 |
| 20260505113335 | 67 | 219 | 0.9 | 3.5 | 0.00 | 0.08 | 0.01 | 60 | 1002.9 |
| 20260505112927 | 68 | 220 | 0.9 | 3.5 | 0.00 | 0.08 | 0.01 | 60 | 1002.8 |
| 20260505112519 | 68 | 144 | 0.9 | 3.5 | 0.00 | 0.08 | 0.01 | 60 | 1002.7 |
| 20260505112121 | 68 | 262 | 0.9 | 3.5 | 0.00 | 0.08 | 0.01 | 60 | 1002.7 |
| 20260505111720 | 68 | 199 | 0.9 | 4.3 | 0.00 | 0.08 | 0.01 | 60 | 1002.7 |
| 20260505111304 | 68 | 223 | 0.9 | 4.3 | 0.00 | 0.08 | 0.01 | 60 | 1002.5 |
| 20260505110345 | 67 | 219 | 1.7 | 7.8 | 0.00 | 0.08 | 0.01 | 59 | 1002.3 |
| 20260505102010 | 67 | 218 | 0.0 | 1.7 | 0.00 | 0.08 | 0.01 | 61 | 1001.7 |
| 20260505101607 | 67 | 50 | 0.0 | 5.2 | 0.00 | 0.08 | 0.01 | 60 | 1001.6 |
| 20260505100647 | 67 | 221 | 0.0 | 7.0 | 0.00 | 0.08 | 0.01 | 60 | 1001.5 |
| 20260505100243 | 67 | 190 | 0.0 | 7.0 | 0.00 | 0.08 | 0.01 | 60 | 1001.4 |
| 20260505095842 | 67 | 140 | 0.0 | 7.0 | 0.00 | 0.08 | 0.01 | 59 | 1001.2 |
| 20260505095437 | 68 | 182 | 0.0 | 7.0 | 0.00 | 0.08 | 0.01 | 58 | 1001.2 |
| 20260505095041 | 68 | 232 | 0.9 | 4.3 | 0.00 | 0.08 | 0.01 | 58 | 1001.0 |
| 20260505094644 | 68 | 242 | 0.9 | 4.3 | 0.00 | 0.08 | 0.01 | 58 | 1001.0 |
| 20260505094248 | 68 | 271 | 0.9 | 4.3 | 0.00 | 0.08 | 0.01 | 58 | 1001.0 |
| 20260505093835 | 68 | 217 | 0.0 | 2.6 | 0.00 | 0.08 | 0.01 | 57 | 1001.1 |
| 20260505093419 | 68 | 146 | 0.9 | 7.8 | 0.00 | 0.08 | 0.01 | 57 | 1001.0 |
| 20260505093008 | 68 | 196 | 0.9 | 7.8 | 0.00 | 0.08 | 0.01 | 56 | 1000.9 |
| 20260505092554 | 69 | 118 | 1.7 | 11.3 | 0.00 | 0.08 | 0.01 | 57 | 1000.8 |
| 20260505091619 | 69 | 186 | 2.6 | 11.3 | 0.00 | 0.08 | 0.01 | 56 | 1000.6 |
| 20260505091208 | 69 | 223 | 1.7 | 11.3 | 0.00 | 0.08 | 0.01 | 56 | 1000.7 |
| 20260505090754 | 69 | 233 | 1.7 | 11.3 | 0.00 | 0.08 | 0.01 | 56 | 1000.8 |
| 20260505090357 | 69 | 265 | 1.7 | 8.7 | 0.00 | 0.08 | 0.01 | 56 | 1000.8 |
| 20260505085957 | 69 | 253 | 1.7 | 8.7 | 0.00 | 0.08 | 0.01 | 56 | 1000.7 |
| 20260505085548 | 69 | 190 | 1.7 | 7.8 | 0.00 | 0.08 | 0.01 | 55 | 1000.8 |
| 20260505085154 | 69 | 178 | 1.7 | 10.4 | 0.00 | 0.08 | 0.01 | 56 | 1000.7 |
| 20260505084750 | 69 | 238 | 0.9 | 10.4 | 0.00 | 0.08 | 0.01 | 55 | 1000.8 |
| 20260505084356 | 70 | 244 | 1.7 | 10.4 | 0.00 | 0.08 | 0.01 | 55 | 1000.9 |
| 20260505083940 | 70 | 232 | 1.7 | 10.4 | 0.00 | 0.08 | 0.01 | 55 | 1000.8 |
| 20260505082512 | 69 | 173 | 1.7 | 6.1 | 0.00 | 0.08 | 0.01 | 56 | 1000.6 |
| 20260505082059 | 68 | 202 | 1.7 | 5.2 | 0.00 | 0.08 | 0.01 | 58 | 1000.6 |
| 20260505081651 | 68 | 198 | 0.9 | 4.3 | 0.00 | 0.08 | 0.01 | 59 | 1000.6 |
| 20260505081249 | 67 | 68 | 0.9 | 4.3 | 0.00 | 0.08 | 0.01 | 61 | 1000.5 |
| 20260505080841 | 66 | 252 | 0.0 | 2.6 | 0.00 | 0.08 | 0.01 | 62 | 1000.6 |
| 20260505080436 | 66 | 244 | 0.0 | 1.7 | 0.00 | 0.08 | 0.01 | 63 | 1000.5 |
| 20260505080033 | 66 | 252 | 0.0 | 4.3 | 0.00 | 0.08 | 0.01 | 63 | 1000.5 |
| 20260505075619 | 66 | 215 | 0.9 | 4.3 | 0.00 | 0.08 | 0.01 | 64 | 1000.5 |
| 20260505075222 | 66 | 219 | 0.9 | 4.3 | 0.00 | 0.08 | 0.01 | 64 | 1000.5 |
| 20260505074810 | 66 | 223 | 0.9 | 4.3 | 0.00 | 0.08 | 0.01 | 64 | 1000.5 |
| 20260505074405 | 66 | 177 | 0.9 | 4.3 | 0.00 | 0.08 | 0.01 | 63 | 1000.5 |
| 20260505074012 | 66 | 173 | 0.9 | 4.3 | 0.00 | 0.08 | 0.01 | 64 | 1000.6 |
| 20260505073602 | 66 | 160 | 0.9 | 4.3 | 0.00 | 0.08 | 0.01 | 64 | 1000.5 |
| 20260505073146 | 66 | 175 | 0.9 | 4.3 | 0.00 | 0.08 | 0.01 | 64 | 1000.5 |
| 20260505072749 | 66 | 127 | 0.9 | 5.2 | 0.00 | 0.08 | 0.01 | 64 | 1000.5 |
| 20260505072351 | 66 | 132 | 0.9 | 5.2 | 0.00 | 0.08 | 0.01 | 64 | 1000.4 |
| 20260505071428 | 66 | 140 | 1.7 | 5.2 | 0.00 | 0.08 | 0.01 | 64 | 1000.5 |
| 20260505071014 | 66 | 160 | 1.7 | 5.2 | 0.00 | 0.08 | 0.01 | 64 | 1000.5 |
| 20260505070615 | 66 | 139 | 1.7 | 5.2 | 0.00 | 0.08 | 0.01 | 65 | 1000.6 |
| 20260505070220 | 66 | 150 | 0.9 | 5.2 | 0.00 | 0.08 | 0.01 | 65 | 1000.6 |
| 20260505064718 | 65 | 134 | 1.7 | 5.2 | 0.00 | 0.08 | 0.01 | 65 | 1000.7 |
| 20260505064303 | 65 | 130 | 1.7 | 5.2 | 0.00 | 0.08 | 0.01 | 66 | 1000.8 |
| 20260505063901 | 65 | 136 | 1.7 | 5.2 | 0.00 | 0.08 | 0.01 | 66 | 1000.8 |
| 20260505063450 | 65 | 132 | 1.7 | 5.2 | 0.00 | 0.08 | 0.01 | 66 | 1000.8 |
| 20260505063048 | 66 | 76 | 1.7 | 5.2 | 0.00 | 0.08 | 0.01 | 66 | 1000.8 |
| 20260505062638 | 66 | 107 | 1.7 | 4.3 | 0.00 | 0.08 | 0.01 | 66 | 1000.9 |
| 20260505062228 | 66 | 155 | 1.7 | 5.2 | 0.00 | 0.08 | 0.01 | 65 | 1000.9 |
| 20260505061825 | 66 | 236 | 0.9 | 5.2 | 0.00 | 0.08 | 0.01 | 66 | 1000.9 |
| 20260505061409 | 66 | 119 | 1.7 | 9.6 | 0.00 | 0.08 | 0.01 | 65 | 1001.0 |
| 20260505061012 | 66 | 330 | 1.7 | 9.6 | 0.00 | 0.08 | 0.01 | 65 | 1001.0 |
| 20260505060604 | 66 | 132 | 1.7 | 9.6 | 0.00 | 0.08 | 0.01 | 65 | 1001.0 |
| 20260505060147 | 66 | 128 | 1.7 | 9.6 | 0.00 | 0.06 | 0.00 | 65 | 1001.2 |
| 20260505055749 | 66 | 217 | 1.7 | 9.6 | 0.00 | 0.06 | 0.00 | 64 | 1001.1 |
| 20260505055354 | 66 | 104 | 0.9 | 5.2 | 0.00 | 0.06 | 0.00 | 64 | 1001.3 |
| 20260505054958 | 66 | 214 | 0.9 | 5.2 | 0.00 | 0.06 | 0.00 | 65 | 1001.4 |
| 20260505054600 | 66 | 129 | 0.9 | 5.2 | 0.00 | 0.06 | 0.00 | 64 | 1001.3 |
| 20260505054153 | 66 | 126 | 0.9 | 5.2 | 0.00 | 0.06 | 0.00 | 65 | 1001.5 |
| 20260505053739 | 66 | 117 | 1.7 | 5.2 | 0.00 | 0.06 | 0.00 | 65 | 1001.6 |
| 20260505053345 | 66 | 155 | 0.9 | 5.2 | 0.00 | 0.06 | 0.00 | 64 | 1001.8 |
| 20260505052929 | 67 | 150 | 1.7 | 4.3 | 0.00 | 0.06 | 0.00 | 62 | 1001.7 |
| 20260505052516 | 67 | 155 | 1.7 | 4.3 | 0.00 | 0.06 | 0.00 | 61 | 1001.8 |
| 20260505052111 | 67 | 144 | 1.7 | 4.3 | 0.00 | 0.06 | 0.00 | 61 | 1001.7 |
| 20260505051657 | 67 | 152 | 0.9 | 4.3 | 0.00 | 0.06 | 0.00 | 62 | 1001.7 |
| 20260505051244 | 67 | 225 | 0.9 | 4.3 | 0.00 | 0.06 | 0.00 | 61 | 1001.8 |
| 20260505050833 | 67 | 217 | 0.9 | 4.3 | 0.00 | 0.06 | 0.00 | 61 | 1001.8 |
| 20260505050419 | 67 | 136 | 0.9 | 4.3 | 0.00 | 0.06 | 0.00 | 61 | 1001.8 |
| 20260505040623 | 63 | 159 | 0.0 | 1.7 | 0.00 | 0.06 | 0.00 | 69 | 1002.4 |
| 20260505040209 | 62 | 126 | 0.0 | 1.7 | 0.00 | 0.06 | 0.00 | 71 | 1002.3 |
| 20260505035811 | 62 | 157 | 0.0 | 1.7 | 0.00 | 0.06 | 0.06 | 71 | 1002.6 |
| 20260505035401 | 62 | 157 | 0.0 | 1.7 | 0.00 | 0.06 | 0.06 | 72 | 1002.7 |
| 20260505035003 | 62 | 109 | 0.0 | 1.7 | 0.00 | 0.06 | 0.06 | 71 | 1002.7 |
| 20260505034558 | 62 | 125 | 0.0 | 0.9 | 0.00 | 0.06 | 0.06 | 71 | 1002.9 |
| 20260505034202 | 62 | 124 | 0.0 | 0.0 | 0.00 | 0.06 | 0.06 | 70 | 1002.8 |